User: anonymous
Location: Hancock Field Station
(44.9202°N, 120.4259°W)
Time: 15:52:45
(UTC-07:00)
Language:

Cosmos 1707 - Orbit

View from above orbital plane
View from above orbital plane
View from above satellite
View from above satellite

Ground track
Ground track

The orbit data is extracted from the following two-line orbital elements,

1 16326U 85113A   14109.13864112  .00007468  00000-0  48410-3 0  8889
2 16326 082.5138 259.4350 0009394 292.1948 067.8283 15.07939314542888
Epoch (UTC): 19 April 2014 03:19:38
Eccentricity: 0.0009394
inclination: 82.5138°
perigee height: 536 km
apogee height: 549 km
right ascension of ascending node: 259.4350°
argument of perigee: 292.1948°
revolutions per day: 15.07939314
mean anomaly at epoch: 67.8283°
orbit number at epoch: 54288

The dashed part of the orbit path shows where the satellite is in the earth's shadow,  

DLR